Tracking 29892 objects as of 21-Nov-2024
HD Live streaming from Space Station
objects crossing your sky now

STARLINK-4258

Track STARLINK-4258 now!
10-day predictions
STARLINK-4258 is classified as:


NORAD ID: 53180
Int'l Code: 2022-083BA
Perigee: 545.8 km
Apogee: 547.8 km
Inclination: 53.2 °
Period: 95.4 minutes
Semi major axis: 6917 km
RCS: Unknown
Launch date: July 17, 2022
Source: United States (US)
Launch site: AIR FORCE EASTERN TEST RANGE (AFETR)
Your satellite tracking list
Your tracking list is empty




NASA's NSSDC Master Catalog

Two Line Element Set (TLE):
1 53180U 22083BA  24325.75361330 -.00003814  00000-0 -22153-3 0  9990
2 53180  53.2160  91.5726 0001460  83.1326 276.9832 15.08865349130369
Source of the keplerian elements: AFSPC